Location: Arapaho Elementary School
(32.9607°N, 96.7625°W)
Time: 14:11:38
(UTC+00:00)

Cosmos 1500 Rocket - Pass Details

Date: 04 July 2022
Orbit: 602 x 631 km, 82.5° (Epoch: 07 August)

Event Time Altitude Azimuth Distance (km) Brightness Sun altitude
Exits shadow 08:10:51 11° 101° (ESE) 1,924 6.2 -29.4°
Maximum altitude 08:12:00 12° 86° (E) 1,865 6.3 -29.2°
Drops below altitude 10° 08:13:42 10° 63° (ENE) 2,005 6.8 -29.1°
Sets 08:17:17 0° 33° (NNE) 2,922 8.3 -28.7°
